Карточка аэропорта URKA

Внимание!
Информация на этой странице в стадии наполнения.
Если вы не увидели какой-то информации, или заметили неточность - пожалуйста сообщите нам!
Спасибо!
Команда RU-STAFF
Название аэропортаВитязево
Название аэропорта (англ.)Vityazevo
Превышение176 ft. (53.6 m.)
Координаты45°0.13200000000012', 37°20.832'
Высота перехода1100m
Эшелон переходаFL050
Коды ответчика2400-2407
Зона ОрВДРостов-на-Дону РПИ (URRV)
Данные METARURKA 241530Z 21005MPS 9999 FEW/// BKN030CB 13/10 Q1012 R22/290160 NOSIG RMK QFE754/1006
Проноз погоды (TAF)URKA 241355Z 2415/2515 25007G16MPS 6000 -SHRA BKN016CB TEMPO 2415/2515 1000 TSRA SCT005 BKN016CB BECMG 2503/2504 31007G16MPS
NOTAMshow/hide NOTAM
AWOS   TABLE

Информация о ВПП

ВПП Длина ВПП (м.) Покрытие Курс ВПП Частота ILS
042500Цементобетон36109.1
222500Цементобетон216 

Диспетчерские позиции

Позывной Наименование органа УВД Частота
URKA_R_APPАнапа-Круг118.7
URKA_TWRАнапа-Старт119.8
URKA_GNDАнапа-Руление119.0
URKAFM1119,0



Спутниковое изображение